Terug naar catalogus

STARLINK-31807

ActiefCommunicatieVLEO
NORAD 59639·PAYLOAD·🇺🇸 United States

Gelanceerd May 3, 2024 vanaf Cape Canaveral Space Force Station

Loading…

Volgende Passages (komende 24 uur)

TLE

VersSource: CelesTrak SupGP

Epoch: Sep 15, 2026, 02:48 UTC

1 59639C 24082J   26258.11715278  .00022477  00000+0  81413-3 0  2582
2 59639  43.0018 150.3198 0001317 269.9846 282.9474 15.27567159    18

Volg STARLINK-31807 in realtime met AllMySat

Download on the App Store